IBE17YB LEBL-LEMD

Flight info

Callsign IBE17YB
Flight time 0h 56m
Altitude 29000
Route SENIA Z596 NEXAS N975 ADUXO
Aircraft A320/M-SDE3FGHIRWY/LB1

Departure

Time 2026-05-05 21:51
Airport Josep Tarradellas Barcelona-El Prat Airport (LEBL)

Arrival

Time 2026-05-05 22:48
Airport Adolfo Suárez Madrid–Barajas Airport (LEMD)
Time Latitude Longitude Altitude Speed Heading
2026-05-05 21:26 41.28963 2.07843 19 ft 0 kts 335°
2026-05-05 21:42 41.28961 2.07844 19 ft 2 kts 335°
2026-05-05 21:43 41.28943 2.07856 20 ft 3 kts 330°
2026-05-05 21:43 41.28926 2.07870 20 ft 3 kts 323°
2026-05-05 21:43 41.28910 2.07887 20 ft 3 kts 310°
2026-05-05 21:43 41.28900 2.07907 19 ft 3 kts 281°
2026-05-05 21:44 41.28900 2.07925 22 ft 0 kts 245°
2026-05-05 21:47 41.28897 2.07916 19 ft 6 kts 245°
2026-05-05 21:47 41.28856 2.07855 19 ft 11 kts 204°
2026-05-05 21:47 41.28768 2.07898 20 ft 16 kts 157°
2026-05-05 21:48 41.28675 2.07951 15 ft 15 kts 156°
2026-05-05 21:48 41.28593 2.07938 16 ft 11 kts 223°
2026-05-05 21:48 41.28562 2.07851 17 ft 10 kts 248°
2026-05-05 21:48 41.28535 2.07770 18 ft 9 kts 246°
2026-05-05 21:49 41.28512 2.07701 16 ft 7 kts 245°
2026-05-05 21:49 41.28489 2.07649 17 ft 5 kts 233°
2026-05-05 21:49 41.28456 2.07583 16 ft 11 kts 216°
2026-05-05 21:49 41.28381 2.07541 16 ft 12 kts 202°
2026-05-05 21:50 41.28313 2.07486 17 ft 11 kts 229°
2026-05-05 21:50 41.28256 2.07436 18 ft 10 kts 156°
2026-05-05 21:50 41.28245 2.07484 19 ft 0 kts 65°
2026-05-05 21:51 41.28265 2.07541 20 ft 29 kts 64°
2026-05-05 21:51 41.28470 2.08124 20 ft 105 kts 65°
2026-05-05 21:51 41.28866 2.09243 53 ft 156 kts 63°
2026-05-05 21:51 41.29330 2.10582 624 ft 163 kts 64°
2026-05-05 21:52 41.29475 2.13701 1769 ft 189 kts 98°
2026-05-05 21:52 41.29233 2.15526 2137 ft 211 kts 100°
2026-05-05 21:52 41.28970 2.17482 2616 ft 222 kts 100°
2026-05-05 21:53 41.28713 2.19528 3233 ft 227 kts 99°
2026-05-05 21:53 41.28473 2.21624 3906 ft 231 kts 98°
2026-05-05 21:53 41.28247 2.23752 4610 ft 234 kts 98°
2026-05-05 21:53 41.28030 2.25911 5397 ft 236 kts 98°
2026-05-05 21:54 41.27814 2.28111 5864 ft 240 kts 98°
2026-05-05 21:54 41.27580 2.30317 6408 ft 244 kts 103°
2026-05-05 21:54 41.26870 2.32461 6819 ft 266 kts 130°
2026-05-05 21:54 41.25375 2.33978 7303 ft 278 kts 163°
2026-05-05 21:55 41.23477 2.34233 8073 ft 276 kts 195°
2026-05-05 21:55 41.21774 2.33180 8980 ft 270 kts 225°
2026-05-05 21:55 41.20717 2.31166 9923 ft 267 kts 252°
2026-05-05 21:55 41.20353 2.28701 10466 ft 283 kts 262°
2026-05-05 21:56 41.20091 2.25991 10749 ft 307 kts 263°
2026-05-05 21:56 41.19834 2.23089 11210 ft 323 kts 263°
2026-05-05 21:56 41.19572 2.20095 11942 ft 329 kts 263°
2026-05-05 21:56 41.19301 2.17062 12709 ft 333 kts 262°
2026-05-05 21:57 41.19016 2.13985 13490 ft 338 kts 262°
2026-05-05 21:57 41.18719 2.10878 14216 ft 341 kts 262°
2026-05-05 21:57 41.18421 2.07780 14955 ft 343 kts 261°
2026-05-05 21:57 41.18114 2.04635 15714 ft 344 kts 261°
2026-05-05 21:58 41.17805 2.01475 16470 ft 345 kts 261°
2026-05-05 21:58 41.17496 1.98308 17219 ft 347 kts 260°
2026-05-05 21:58 41.17185 1.95134 17947 ft 348 kts 260°
2026-05-05 21:58 41.16875 1.91942 18602 ft 349 kts 260°
2026-05-05 21:59 41.16564 1.88735 19216 ft 351 kts 261°
2026-05-05 21:59 41.16252 1.85518 19812 ft 352 kts 261°
2026-05-05 21:59 41.15941 1.82331 20448 ft 352 kts 261°
2026-05-05 21:59 41.15622 1.79112 21088 ft 352 kts 260°
2026-05-05 22:00 41.15305 1.75887 21723 ft 352 kts 260°
2026-05-05 22:00 41.14990 1.72662 22353 ft 352 kts 260°
2026-05-05 22:00 41.14674 1.69442 22971 ft 353 kts 260°
2026-05-05 22:00 41.14351 1.66208 23572 ft 353 kts 260°
2026-05-05 22:01 41.14026 1.62980 24035 ft 354 kts 260°
2026-05-05 22:01 41.13699 1.59731 24460 ft 356 kts 260°
2026-05-05 22:01 41.13369 1.56462 24864 ft 358 kts 260°
2026-05-05 22:01 41.13037 1.53178 25276 ft 360 kts 260°
2026-05-05 22:02 41.12702 1.49872 25677 ft 363 kts 260°
2026-05-05 22:02 41.12363 1.46541 26063 ft 366 kts 260°
2026-05-05 22:02 41.12137 1.44319 26293 ft 367 kts 260°
2026-05-05 22:02 41.11676 1.39814 26822 ft 370 kts 260°
2026-05-05 22:03 41.11444 1.37555 27080 ft 371 kts 260°
2026-05-05 22:03 41.11092 1.34156 27459 ft 374 kts 260°
2026-05-05 22:03 41.10736 1.30733 27825 ft 376 kts 260°
2026-05-05 22:03 41.10379 1.27290 28179 ft 378 kts 260°
2026-05-05 22:04 41.10021 1.23824 28523 ft 380 kts 260°
2026-05-05 22:04 41.09660 1.20343 28856 ft 382 kts 260°
2026-05-05 22:04 41.09295 1.16825 28967 ft 389 kts 260°
2026-05-05 22:05 41.08543 1.09614 28975 ft 406 kts 261°
2026-05-05 22:05 41.07773 1.02260 28970 ft 387 kts 261°
2026-05-05 22:06 41.07044 0.95333 28974 ft 377 kts 260°
2026-05-05 22:06 41.06308 0.88463 28975 ft 376 kts 260°
2026-05-05 22:07 41.05578 0.81617 28973 ft 375 kts 260°
2026-05-05 22:07 41.04843 0.74765 28992 ft 375 kts 261°
2026-05-05 22:08 41.04101 0.67940 28974 ft 374 kts 261°
2026-05-05 22:08 41.03358 0.61119 28970 ft 374 kts 261°
2026-05-05 22:09 41.02610 0.54303 28973 ft 374 kts 261°
2026-05-05 22:09 41.01857 0.47485 28967 ft 374 kts 260°
2026-05-05 22:10 41.01100 0.40670 28971 ft 374 kts 260°
2026-05-05 22:10 41.00342 0.33852 28974 ft 374 kts 261°
2026-05-05 22:11 40.99583 0.27083 28982 ft 375 kts 261°
2026-05-05 22:11 40.98814 0.20259 28982 ft 375 kts 261°
2026-05-05 22:12 40.98037 0.13419 28988 ft 375 kts 261°
2026-05-05 22:12 40.97259 0.06593 28987 ft 375 kts 261°
2026-05-05 22:13 40.96477 -0.00225 28995 ft 375 kts 261°
2026-05-05 22:13 40.95685 -0.07049 28991 ft 375 kts 261°
2026-05-05 22:14 40.94891 -0.13880 28980 ft 375 kts 261°
2026-05-05 22:14 40.94109 -0.20650 28989 ft 375 kts 261°
2026-05-05 22:15 40.93320 -0.27469 28983 ft 375 kts 261°
2026-05-05 22:15 40.92520 -0.34280 28994 ft 375 kts 261°
2026-05-05 22:16 40.91706 -0.41091 28993 ft 374 kts 260°
2026-05-05 22:16 40.90894 -0.47883 28973 ft 374 kts 261°
2026-05-05 22:17 40.90076 -0.54732 28983 ft 378 kts 260°
2026-05-05 22:17 40.89249 -0.61594 28990 ft 378 kts 260°
2026-05-05 22:18 40.88425 -0.68450 28995 ft 378 kts 260°
2026-05-05 22:18 40.87593 -0.75305 28996 ft 378 kts 260°
2026-05-05 22:19 40.86375 -0.81994 29015 ft 379 kts 251°
2026-05-05 22:19 40.84559 -0.88533 29011 ft 379 kts 251°
2026-05-05 22:20 40.82739 -0.95080 29013 ft 380 kts 251°
2026-05-05 22:20 40.80920 -1.01628 29014 ft 380 kts 251°
2026-05-05 22:21 40.79108 -1.08166 29018 ft 380 kts 251°
2026-05-05 22:21 40.77283 -1.14713 29023 ft 380 kts 251°
2026-05-05 22:22 40.75449 -1.21252 29019 ft 381 kts 251°
2026-05-05 22:22 40.73609 -1.27806 29023 ft 381 kts 251°
2026-05-05 22:22 40.72690 -1.31089 28845 ft 382 kts 251°
2026-05-05 22:23 40.71768 -1.34378 28565 ft 382 kts 251°
2026-05-05 22:23 40.70855 -1.37633 28307 ft 383 kts 251°
2026-05-05 22:23 40.69928 -1.40929 28046 ft 384 kts 251°
2026-05-05 22:23 40.69001 -1.44231 27771 ft 385 kts 251°
2026-05-05 22:24 40.68068 -1.47545 27510 ft 386 kts 251°
2026-05-05 22:24 40.67130 -1.50860 27250 ft 386 kts 251°
2026-05-05 22:24 40.66191 -1.54180 26986 ft 388 kts 251°
2026-05-05 22:24 40.65245 -1.57512 26725 ft 389 kts 251°
2026-05-05 22:25 40.64294 -1.60846 26476 ft 388 kts 251°
2026-05-05 22:25 40.63347 -1.64169 26217 ft 387 kts 251°
2026-05-05 22:25 40.62403 -1.67481 25975 ft 386 kts 251°
2026-05-05 22:25 40.61463 -1.70781 25726 ft 384 kts 252°
2026-05-05 22:26 40.60527 -1.74067 25483 ft 383 kts 251°
2026-05-05 22:26 40.59591 -1.77346 25237 ft 382 kts 252°
2026-05-05 22:26 40.58656 -1.80610 24990 ft 381 kts 252°
2026-05-05 22:26 40.57724 -1.83859 24757 ft 379 kts 252°
2026-05-05 22:27 40.56795 -1.87099 24514 ft 378 kts 252°
2026-05-05 22:27 40.55875 -1.90300 23981 ft 371 kts 252°
2026-05-05 22:27 40.54977 -1.93418 23357 ft 367 kts 252°
2026-05-05 22:27 40.54079 -1.96531 22748 ft 361 kts 252°
2026-05-05 22:28 40.53194 -1.99592 22201 ft 355 kts 252°
2026-05-05 22:28 40.52322 -2.02613 21665 ft 351 kts 251°
2026-05-05 22:28 40.51453 -2.05580 21160 ft 346 kts 249°
2026-05-05 22:28 40.50312 -2.08403 20682 ft 359 kts 242°
2026-05-05 22:29 40.48988 -2.11252 20205 ft 369 kts 241°
2026-05-05 22:29 40.47643 -2.14140 19714 ft 370 kts 241°
2026-05-05 22:29 40.46294 -2.17025 19231 ft 371 kts 241°
2026-05-05 22:29 40.44946 -2.19899 18736 ft 370 kts 241°
2026-05-05 22:30 40.43597 -2.22772 18241 ft 369 kts 240°
2026-05-05 22:30 40.42252 -2.25635 17735 ft 367 kts 240°
2026-05-05 22:30 40.40913 -2.28480 17230 ft 366 kts 240°
2026-05-05 22:30 40.39576 -2.31321 16750 ft 365 kts 240°
2026-05-05 22:31 40.38264 -2.34117 16278 ft 364 kts 240°
2026-05-05 22:31 40.36940 -2.36941 15799 ft 362 kts 240°
2026-05-05 22:31 40.35620 -2.39747 15309 ft 361 kts 240°
2026-05-05 22:31 40.34310 -2.42529 14897 ft 356 kts 240°
2026-05-05 22:32 40.33029 -2.45245 14761 ft 342 kts 240°
2026-05-05 22:32 40.31799 -2.47848 14636 ft 329 kts 240°
2026-05-05 22:32 40.30616 -2.50343 14513 ft 316 kts 240°
2026-05-05 22:32 40.29475 -2.52750 14391 ft 305 kts 240°
2026-05-05 22:33 40.28389 -2.55047 14217 ft 289 kts 240°
2026-05-05 22:33 40.27354 -2.57238 13967 ft 274 kts 240°
2026-05-05 22:33 40.26461 -2.59365 13713 ft 259 kts 251°
2026-05-05 22:33 40.26063 -2.61583 13445 ft 251 kts 266°
2026-05-05 22:34 40.26045 -2.63863 13178 ft 250 kts 270°
2026-05-05 22:34 40.26044 -2.66132 12912 ft 249 kts 270°
2026-05-05 22:34 40.26038 -2.68385 12649 ft 247 kts 270°
2026-05-05 22:34 40.26032 -2.70636 12384 ft 246 kts 270°
2026-05-05 22:35 40.26025 -2.72875 12127 ft 245 kts 270°
2026-05-05 22:35 40.26018 -2.75108 11873 ft 246 kts 270°
2026-05-05 22:35 40.26008 -2.77340 11617 ft 244 kts 270°
2026-05-05 22:35 40.25998 -2.79555 11364 ft 243 kts 270°
2026-05-05 22:36 40.25989 -2.81766 11107 ft 242 kts 270°
2026-05-05 22:36 40.25980 -2.83967 10865 ft 242 kts 270°
2026-05-05 22:36 40.25972 -2.86161 10617 ft 241 kts 270°
2026-05-05 22:36 40.25963 -2.88345 10373 ft 240 kts 270°
2026-05-05 22:37 40.25953 -2.90526 10126 ft 239 kts 270°
2026-05-05 22:37 40.25942 -2.92699 9923 ft 238 kts 270°
2026-05-05 22:37 40.25930 -2.94866 9797 ft 238 kts 270°
2026-05-05 22:37 40.25919 -2.97038 9655 ft 238 kts 270°
2026-05-05 22:38 40.25905 -2.99207 9528 ft 238 kts 270°
2026-05-05 22:38 40.25892 -3.01383 9394 ft 238 kts 270°
2026-05-05 22:38 40.25880 -3.03520 9271 ft 238 kts 270°
2026-05-05 22:38 40.25868 -3.05684 9067 ft 238 kts 270°
2026-05-05 22:39 40.25854 -3.07855 8847 ft 238 kts 270°
2026-05-05 22:39 40.25842 -3.10023 8618 ft 238 kts 270°
2026-05-05 22:39 40.25827 -3.12189 8387 ft 238 kts 270°
2026-05-05 22:39 40.25908 -3.14339 8156 ft 237 kts 280°
2026-05-05 22:40 40.26193 -3.16461 7927 ft 236 kts 280°
2026-05-05 22:40 40.26474 -3.18580 7696 ft 236 kts 280°
2026-05-05 22:40 40.26755 -3.20702 7460 ft 236 kts 280°
2026-05-05 22:40 40.27036 -3.22819 7229 ft 236 kts 280°
2026-05-05 22:41 40.27314 -3.24929 7007 ft 236 kts 280°
2026-05-05 22:41 40.27588 -3.27039 6769 ft 235 kts 280°
2026-05-05 22:41 40.27864 -3.29148 6530 ft 235 kts 281°
2026-05-05 22:41 40.28142 -3.31254 6311 ft 235 kts 281°
2026-05-05 22:42 40.28523 -3.33312 6074 ft 229 kts 292°
2026-05-05 22:42 40.29089 -3.35236 5849 ft 223 kts 292°
2026-05-05 22:42 40.29637 -3.37106 5634 ft 217 kts 292°
2026-05-05 22:42 40.30244 -3.38871 5424 ft 210 kts 306°
2026-05-05 22:43 40.31266 -3.40181 5221 ft 203 kts 323°
2026-05-05 22:43 40.32361 -3.41280 5026 ft 198 kts 323°
2026-05-05 22:43 40.33439 -3.42366 4838 ft 194 kts 323°
2026-05-05 22:43 40.33613 -3.42542 4803 ft 193 kts 323°
2026-05-05 22:44 40.34056 -3.42985 4708 ft 193 kts 323°
2026-05-05 22:44 40.35111 -3.44052 4540 ft 189 kts 323°
2026-05-05 22:44 40.36135 -3.45088 4437 ft 184 kts 323°
2026-05-05 22:44 40.37148 -3.46112 4233 ft 184 kts 323°
2026-05-05 22:45 40.38151 -3.47127 4018 ft 181 kts 323°
2026-05-05 22:45 40.39144 -3.48131 3766 ft 179 kts 323°
2026-05-05 22:45 40.40130 -3.49128 3522 ft 179 kts 323°
2026-05-05 22:45 40.41113 -3.50124 3298 ft 177 kts 323°
2026-05-05 22:46 40.42069 -3.51092 3072 ft 164 kts 323°
2026-05-05 22:46 40.42921 -3.51955 2793 ft 147 kts 322°
2026-05-05 22:46 40.43709 -3.52754 2621 ft 140 kts 322°
2026-05-05 22:46 40.44471 -3.53527 2455 ft 137 kts 323°
2026-05-05 22:47 40.45220 -3.54286 2255 ft 135 kts 325°
2026-05-05 22:47 40.45959 -3.55034 2089 ft 134 kts 323°
2026-05-05 22:47 40.46699 -3.55777 1979 ft 133 kts 324°
2026-05-05 22:47 40.47348 -3.56426 1988 ft 99 kts 323°
2026-05-05 22:48 40.47760 -3.56838 1995 ft 50 kts 319°
2026-05-05 22:48 40.47924 -3.57023 1999 ft 23 kts 317°
2026-05-05 22:48 40.48025 -3.57151 2004 ft 14 kts 312°
2026-05-05 22:48 40.48101 -3.57246 2006 ft 16 kts 311°
2026-05-05 22:49 40.48155 -3.57379 2004 ft 18 kts 292°
2026-05-05 22:49 40.48205 -3.57522 2000 ft 18 kts 296°
2026-05-05 22:49 40.48281 -3.57661 1996 ft 19 kts 322°
2026-05-05 22:49 40.48369 -3.57776 1993 ft 16 kts 277°
2026-05-05 22:50 40.48421 -3.57906 1992 ft 18 kts 331°
2026-05-05 22:50 40.48502 -3.57979 1999 ft 11 kts 298°
2026-05-05 22:50 40.48514 -3.58045 2002 ft 4 kts 268°
2026-05-05 22:50 40.48512 -3.58062 2003 ft 0 kts 263°
2026-05-05 22:51 40.48513 -3.58132 2006 ft 29 kts 270°
2026-05-05 22:51 40.48512 -3.58372 2014 ft 20 kts 269°
2026-05-05 22:51 40.48510 -3.58549 2019 ft 19 kts 269°
2026-05-05 22:51 40.48509 -3.58665 2027 ft 19 kts 270°
2026-05-05 22:52 40.48542 -3.58802 2028 ft 15 kts 334°
2026-05-05 22:52 40.48651 -3.58809 2030 ft 17 kts 359°
2026-05-05 22:52 40.48755 -3.58849 2031 ft 14 kts 308°
2026-05-05 22:52 40.48837 -3.58880 2022 ft 9 kts
2026-05-05 22:53 40.48853 -3.58879 2022 ft 0 kts
2026-05-05 22:54 40.48860 -3.58881 2022 ft 3 kts 350°
2026-05-05 22:54 40.48875 -3.58901 2034 ft 3 kts 307°
2026-05-05 22:54 40.48879 -3.58947 2031 ft 3 kts 265°
2026-05-05 22:54 40.48879 -3.58952 2022 ft 3 kts 269°
2026-05-05 22:55 40.48879 -3.58961 2022 ft 0 kts 269°